TimeEST,TemperatureF,Dew PointF,Humidity,Sea Level PressureIn,VisibilityMPH,Wind Direction,Wind SpeedMPH,Gust SpeedMPH,PrecipitationIn,Events,Conditions,WindDirDegrees,DateUTC
12:15 AM,35.6,34.5,96,29.86,10.0,Calm,Calm,-,N/A,,Clear,0,2013-02-14 05:15:00
12:35 AM,34.9,34.0,97,29.87,10.0,Calm,Calm,-,N/A,,Clear,0,2013-02-14 05:35:00
12:55 AM,34.2,34.2,100,29.88,10.0,Calm,Calm,-,N/A,,Clear,0,2013-02-14 05:55:00
1:15 AM,33.3,33.3,100,29.88,10.0,Calm,Calm,-,N/A,,Clear,0,2013-02-14 06:15:00
1:35 AM,32.4,32.4,100,29.88,10.0,Calm,Calm,-,N/A,,Clear,0,2013-02-14 06:35:00
1:55 AM,32.2,32.2,100,29.89,10.0,Calm,Calm,-,N/A,,Clear,0,2013-02-14 06:55:00
2:15 AM,32.0,32.0,100,29.89,10.0,Calm,Calm,-,N/A,,Clear,0,2013-02-14 07:15:00
2:35 AM,31.3,31.3,100,29.89,7.0,Calm,Calm,-,N/A,,Clear,0,2013-02-14 07:35:00
2:55 AM,32.0,32.0,100,29.90,10.0,Calm,Calm,-,N/A,,Clear,0,2013-02-14 07:55:00
3:15 AM,31.8,31.8,100,29.91,10.0,Calm,Calm,-,N/A,,Clear,0,2013-02-14 08:15:00
3:35 AM,31.3,31.3,100,29.91,10.0,Calm,Calm,-,N/A,,Clear,0,2013-02-14 08:35:00
3:55 AM,30.7,30.7,100,29.92,7.0,Calm,Calm,-,N/A,,Clear,0,2013-02-14 08:55:00
4:15 AM,30.2,30.2,100,29.92,7.0,Calm,Calm,-,N/A,,Clear,0,2013-02-14 09:15:00
4:35 AM,29.8,29.8,100,29.93,7.0,Calm,Calm,-,N/A,,Clear,0,2013-02-14 09:35:00
4:55 AM,30.0,30.0,100,29.93,7.0,Calm,Calm,-,N/A,,Clear,0,2013-02-14 09:55:00
5:15 AM,30.4,30.4,100,29.94,7.0,Calm,Calm,-,N/A,,Clear,0,2013-02-14 10:15:00
5:35 AM,28.4,28.4,100,29.95,7.0,Calm,Calm,-,N/A,,Clear,0,2013-02-14 10:35:00
5:55 AM,28.6,28.6,100,29.96,7.0,Calm,Calm,-,N/A,,Clear,0,2013-02-14 10:55:00
6:15 AM,28.8,28.8,100,29.97,5.0,Calm,Calm,-,N/A,,Clear,0,2013-02-14 11:15:00
6:35 AM,28.4,28.4,100,29.97,7.0,Calm,Calm,-,N/A,,Clear,0,2013-02-14 11:35:00
6:55 AM,27.5,27.5,100,29.98,7.0,Calm,Calm,-,N/A,,Clear,0,2013-02-14 11:55:00
7:15 AM,27.5,27.5,100,29.99,7.0,Calm,Calm,-,N/A,,Clear,0,2013-02-14 12:15:00
7:35 AM,28.4,28.4,100,29.99,5.0,Calm,Calm,-,N/A,,Clear,0,2013-02-14 12:35:00
7:55 AM,28.4,28.4,100,30.00,5.0,Calm,Calm,-,N/A,,Clear,0,2013-02-14 12:55:00
8:15 AM,30.7,30.7,100,30.02,5.0,Calm,Calm,-,N/A,,Clear,0,2013-02-14 13:15:00
8:35 AM,32.7,32.7,100,30.04,5.0,Calm,Calm,-,N/A,,Clear,0,2013-02-14 13:35:00
8:55 AM,34.9,34.9,100,30.05,10.0,Calm,Calm,-,N/A,,Clear,0,2013-02-14 13:55:00
9:15 AM,35.4,35.4,100,30.04,10.0,Calm,Calm,-,N/A,,Clear,0,2013-02-14 14:15:00
9:35 AM,39.7,32.7,76,30.05,10.0,Calm,Calm,-,N/A,,Clear,0,2013-02-14 14:35:00
9:55 AM,41.5,30.2,64,30.04,10.0,Calm,Calm,-,N/A,,Clear,0,2013-02-14 14:55:00
10:15 AM,43.0,28.9,58,30.03,10.0,North,5.8,-,N/A,,Clear,360,2013-02-14 15:15:00
10:35 AM,43.3,29.1,57,30.04,10.0,North,3.5,-,N/A,,Clear,10,2013-02-14 15:35:00
10:55 AM,43.9,29.1,56,30.04,10.0,NNE,4.6,-,N/A,,Clear,20,2013-02-14 15:55:00
11:15 AM,44.1,28.9,55,30.03,10.0,WNW,3.5,-,N/A,,Clear,300,2013-02-14 16:15:00
11:35 AM,44.6,28.9,54,30.02,10.0,East,3.5,-,N/A,,Clear,90,2013-02-14 16:35:00
11:55 AM,45.9,29.1,52,30.04,10.0,SSW,3.5,-,N/A,,Clear,210,2013-02-14 16:55:00
12:15 PM,45.9,29.8,54,30.03,10.0,Calm,Calm,-,N/A,,Clear,0,2013-02-14 17:15:00
12:35 PM,46.8,29.8,52,30.03,10.0,SE,6.9,-,N/A,,Clear,140,2013-02-14 17:35:00
12:55 PM,46.4,29.1,51,30.02,10.0,SSW,6.9,-,N/A,,Clear,200,2013-02-14 17:55:00
1:15 PM,47.5,30.0,51,30.02,10.0,SSW,5.8,-,N/A,,Clear,200,2013-02-14 18:15:00
1:35 PM,48.0,31.1,52,30.02,10.0,SSE,8.1,-,N/A,,Clear,160,2013-02-14 18:35:00
1:55 PM,48.6,31.5,52,29.99,10.0,South,3.5,-,N/A,,Clear,170,2013-02-14 18:55:00
2:15 PM,49.5,31.3,50,29.99,10.0,SSE,6.9,-,N/A,,Clear,160,2013-02-14 19:15:00
2:35 PM,50.4,29.8,45,29.98,10.0,SW,8.1,-,N/A,,Clear,230,2013-02-14 19:35:00
2:55 PM,50.2,30.0,46,29.98,10.0,SSW,6.9,-,N/A,,Clear,200,2013-02-14 19:55:00
3:15 PM,50.4,30.0,46,29.99,10.0,WSW,6.9,-,N/A,,Clear,240,2013-02-14 20:15:00
3:35 PM,50.0,31.1,48,29.98,10.0,South,6.9,-,N/A,,Clear,180,2013-02-14 20:35:00
3:55 PM,50.2,31.3,48,29.98,10.0,SSW,6.9,-,N/A,,Clear,200,2013-02-14 20:55:00
4:15 PM,50.0,31.3,49,29.99,10.0,SW,5.8,-,N/A,,Clear,230,2013-02-14 21:15:00
4:35 PM,49.5,31.6,50,29.99,10.0,SSW,8.1,-,N/A,,Clear,210,2013-02-14 21:35:00
4:55 PM,49.1,31.5,51,29.99,10.0,SSW,4.6,-,N/A,,Clear,200,2013-02-14 21:55:00
5:15 PM,49.1,31.8,51,29.99,10.0,Calm,Calm,-,N/A,,Clear,0,2013-02-14 22:15:00
5:35 PM,48.2,31.8,53,29.98,10.0,Calm,Calm,-,N/A,,Clear,0,2013-02-14 22:35:00
5:55 PM,47.3,31.1,53,29.98,10.0,Calm,Calm,-,N/A,,Clear,0,2013-02-14 22:55:00
6:15 PM,46.4,31.1,55,29.99,10.0,Calm,Calm,-,N/A,,Clear,0,2013-02-14 23:15:00
6:35 PM,45.1,31.1,58,30.00,10.0,Calm,Calm,-,N/A,,Clear,0,2013-02-14 23:35:00
6:55 PM,43.2,31.8,64,30.00,10.0,Calm,Calm,-,N/A,,Clear,0,2013-02-14 23:55:00
7:15 PM,41.0,32.0,70,30.00,10.0,Calm,Calm,-,N/A,,Clear,0,2013-02-15 00:15:00
7:35 PM,40.1,31.6,72,30.00,10.0,Calm,Calm,-,N/A,,Clear,0,2013-02-15 00:35:00
7:55 PM,39.4,31.8,74,30.00,10.0,Calm,Calm,-,N/A,,Clear,0,2013-02-15 00:55:00
8:15 PM,39.2,32.0,75,30.01,10.0,Calm,Calm,-,N/A,,Clear,0,2013-02-15 01:15:00
8:35 PM,39.6,32.0,74,30.02,10.0,Calm,Calm,-,N/A,,Clear,0,2013-02-15 01:35:00
8:55 PM,40.1,32.0,73,30.03,10.0,Calm,Calm,-,N/A,,Clear,0,2013-02-15 01:55:00
9:15 PM,36.9,31.8,82,30.04,10.0,Calm,Calm,-,N/A,,Clear,0,2013-02-15 02:15:00
9:35 PM,37.6,32.0,80,30.04,10.0,Calm,Calm,-,N/A,,Clear,0,2013-02-15 02:35:00
9:55 PM,38.7,32.7,79,30.05,10.0,Calm,Calm,-,N/A,,Clear,0,2013-02-15 02:55:00
10:15 PM,37.0,32.4,83,30.05,10.0,Calm,Calm,-,N/A,,Clear,0,2013-02-15 03:15:00
10:35 PM,37.4,32.9,84,30.04,10.0,Calm,Calm,-,N/A,,Clear,0,2013-02-15 03:35:00
10:55 PM,34.7,31.5,88,30.04,10.0,Calm,Calm,-,N/A,,Clear,0,2013-02-15 03:55:00
11:15 PM,33.8,32.0,93,30.04,10.0,Calm,Calm,-,N/A,,Clear,0,2013-02-15 04:15:00
11:35 PM,34.7,32.2,91,30.04,10.0,Calm,Calm,-,N/A,,Clear,0,2013-02-15 04:35:00
11:55 PM,34.9,32.2,90,30.04,10.0,Calm,Calm,-,N/A,,Clear,0,2013-02-15 04:55:00